User: anonymous   Login
Location: Invercargill
(46.4000°S, 168.3500°E)
Time: 22:21:35
(UTC+12:00)
Language:

Explorer 11/Cluster Stage 4 - Orbit

View from above orbital plane
View from above orbital plane
View from above satellite
View from above satellite

Ground track
Ground track

The orbit data is extracted from the following two-line orbital elements,

1   107U 61013A   19197.55568806 +.00000445 +00000-0 +37110-4 0  9998
2   107 028.7910 283.9159 0547282 257.6191 096.2622 14.08802794918674
Epoch (UTC): 16 July 2019 13:20:11
Eccentricity: 0.0547282
inclination: 28.7910°
perigee height: 467 km
apogee height: 1260 km
right ascension of ascending node: 283.9159°
argument of perigee: 257.6191°
revolutions per day: 14.08802794
mean anomaly at epoch: 96.2622°
orbit number at epoch: 91867

The dashed part of the orbit path shows where the satellite is in the earth's shadow,  

DLR